Regional Weather Roundup
Issued by NWS

Home | Current Version | Previous Version | Graphics & Text | Print | Product List | Glossary On
Versions: 1 2 3 4 5 6 7 8 9 10 11 12 13 14 15 16 17 18 19 20 21 22 23 24 25 26 27 28 29 30 31 32 33 34 35 36 37 38 39 40 41 42 43 44 45 46 47 48 49 50
000
ASUS43 KTOP 181159
RWRKS

WEATHER ROUNDUP FOR KANSAS
NATIONAL WEATHER SERVICE GOODLAND KS
600 AM CST WED JAN 18 2017

NOTE:  "FAIR" INDICATES FEW OR NO CLOUDS BELOW 12,000 FEET WITH NO
SIGNIFICANT WEATHER AND/OR OBSTRUCTIONS TO VISIBILITY.

KSZ001>006-013>018-027>032-041>047-181300-
NORTHWEST KANSAS

CITY           SKY/WX    TMP DP  RH WIND       PRES   REMARKS
GOODLAND       CLOUDY    27  25  92 SW6       29.94F
6HR MIN TEMP:  26; 6HR MAX TEMP:  34;

HAYS           PTCLDY    30  28  92 CALM      30.03F
HILL CITY      CLOUDY    32  30  92 CALM      29.99F
6HR MIN TEMP:  29; 6HR MAX TEMP:  35;

RUSSELL        PTCLDY    32  29  88 SW10      30.02F WCI  24
6HR MIN TEMP:  31; 6HR MAX TEMP:  35;

$$

KSZ061>065-074>080-084>089-181300-
SOUTHWEST KANSAS

CITY           SKY/WX    TMP DP  RH WIND       PRES   REMARKS
DODGE CITY     PTCLDY    41  36  82 SW13      30.02S
6HR MIN TEMP:  30; 6HR MAX TEMP:  41;

ELKHART          N/A     39  31  73 W10         N/A  WCI  32
GARDEN CITY    PTCLDY    32  29  88 S10       30.01F WCI  24
6HR MIN TEMP:  29; 6HR MAX TEMP:  33;

GREAT BEND     CLOUDY    31  29  92 S9        30.06F
LIBERAL        CLOUDY    37  34  87 S5        30.02S
$$

KSZ066>073-081>083-090>101-181300-
SOUTHEAST KANSAS

CITY           SKY/WX    TMP DP  RH WIND       PRES   REMARKS
CHANUTE        FOG       31  30  96 SE7       30.16R VSB 1/4
6HR MIN TEMP:  29; 6HR MAX TEMP:  35;

COFFEYVILLE    CLEAR     29  28  96 CALM      30.17S FOG
6HR MIN TEMP:  28; 6HR MAX TEMP:  36;

HUTCHINSON     CLEAR     27  25  92 SE5       30.07F
6HR MIN TEMP:  26; 6HR MAX TEMP:  36;

MEDICINE LODGE   N/A     32  29  88 CALM      30.08S
NEWTON         CLEAR     32  29  88 SE7       30.10F
PARSONS        CLEAR     30  29  96 CALM      30.17S FOG
6HR MIN TEMP:  27; 6HR MAX TEMP:  35;

WICHITA INTL   PTCLDY    31  29  92 SE7       30.10S
6HR MIN TEMP:  30; 6HR MAX TEMP:  38;

WICHITA JABRA  CLEAR     29  28  96 SE3       30.11R
6HR MIN TEMP:  29; 6HR MAX TEMP:  41;

WINFIELD       CLEAR     34  32  92 E5        30.13S
6HR MIN TEMP:  32; 6HR MAX TEMP:  40;

$$

KSZ007>012-019>026-033>040-048>060-102>105-181300-
NORTHEAST KANSAS

CITY           SKY/WX    TMP DP  RH WIND       PRES   REMARKS
CONCORDIA      CLOUDY    34  30  85 SW5       30.05F
6HR MIN TEMP:  31; 6HR MAX TEMP:  36;

EMPORIA        CLEAR     30  29  96 S6        30.11F
6HR MIN TEMP:  28; 6HR MAX TEMP:  32;

LAWRENCE       CLOUDY    25  25 100 SE5       30.14S FOG
6HR MIN TEMP:  22; 6HR MAX TEMP:  29;

MANHATTAN      CLOUDY    23  21  92 CALM      30.10F
6HR MIN TEMP:  21; 6HR MAX TEMP:  27;

OLATHE IND     FOG       28  27  96 S5        30.14S VSB 1/4
6HR MIN TEMP:  25; 6HR MAX TEMP:  31;

OLATHE EXE     FOG       28  28 100 S5        30.14S VSB 1/4
6HR MIN TEMP:  27; 6HR MAX TEMP:  31;

SALINA           N/A    N/A N/A N/A MISG        N/A
TOPEKA BILLARD CLOUDY    26  23  88 S3        30.13R
6HR MIN TEMP:  24; 6HR MAX TEMP:  29;

TOPEKA FORBES  CLOUDY    27  25  92 SE5       30.12S FOG
6HR MIN TEMP:  25; 6HR MAX TEMP:  32;

$$



USA.gov is the U.S. government's official web portal to all federal, state and local government web resources and services.